IT9RID Weather Reports


time (UTC)temp
F
wind
direction
speed
knots
gust
knots
rain 1hr
in
rain 24hr
in
rain mn
in
humidity
%
barometer
mb
20260507234517 68 96 0.0 2.6 0.00 0.00 0.00 62 1008.8
20260507233517 68 148 0.0 0.9 0.00 0.00 0.00 63 1009.0
20260507232537 67 196 0.0 1.7 0.00 0.00 0.00 64 1009.2
20260507231517 67 155 0.0 0.0 0.00 0.00 0.00 66 1009.4
20260507230517 67 167 0.0 0.9 0.00 0.00 0.00 66 1009.2
20260507225516 67 153 0.0 0.9 0.00 0.00 0.00 67 1008.8
20260507224517 67 136 4.3 4.3 0.00 0.00 0.00 67 1008.9
20260507223516 67 140 4.3 4.3 0.00 0.00 0.00 67 1008.9
20260507222516 67 153 0.0 3.5 0.00 0.00 0.00 67 1008.8
20260507221536 67 143 0.0 3.5 0.00 0.00 0.00 67 1008.9
20260507220516 67 157 0.0 1.7 0.00 0.00 0.00 68 1009.0
20260507215517 67 150 2.6 2.6 0.00 0.00 0.00 68 1009.1
20260507214515 67 146 6.1 7.8 0.00 0.00 0.00 67 1009.4
20260507213515 67 164 0.0 3.5 0.00 0.00 0.00 67 1009.2
20260507212515 67 145 0.0 4.3 0.00 0.00 0.00 67 1009.0
20260507211515 67 142 0.0 4.3 0.00 0.00 0.00 68 1009.2
20260507210515 67 169 0.0 4.3 0.00 0.00 0.00 67 1009.5
20260507205515 67 173 0.0 7.8 0.00 0.00 0.00 67 1009.5
20260507204515 67 142 0.0 4.3 0.00 0.00 0.00 67 1009.1
20260507203514 67 135 0.9 8.7 0.00 0.00 0.00 67 1009.0
20260507202514 67 144 1.7 8.7 0.00 0.00 0.00 67 1008.9
20260507201514 67 138 3.5 7.0 0.00 0.00 0.00 67 1009.2
20260507110505 76 254 0.9 6.1 0.00 0.00 0.00 33 1009.6
20260507105505 76 143 0.0 5.2 0.00 0.00 0.00 34 1009.8
20260507104506 76 43 2.6 6.1 0.00 0.00 0.00 30 1009.4
20260507103556 76 159 4.3 8.7 0.00 0.00 0.00 30 1009.8
20260507102505 74 40 3.5 9.6 0.00 0.00 0.00 29 1010.0
20260507101506 74 159 5.2 9.6 0.00 0.00 0.00 30 1010.2
20260507100505 74 65 2.6 9.6 0.00 0.00 0.00 30 1009.8
20260507095504 75 84 3.5 9.6 0.00 0.00 0.00 30 1010.1
20260507094504 75 125 0.0 7.8 0.00 0.00 0.00 29 1010.3
20260507093504 75 94 0.0 8.7 0.00 0.00 0.00 33 1010.3
20260507092504 75 94 2.6 3.5 0.00 0.00 0.00 32 1010.1
20260507091504 74 109 7.8 14.8 0.00 0.00 0.00 32 1010.3
20260507090504 74 96 1.7 8.7 0.00 0.00 0.00 32 1010.2
20260507085503 73 92 7.0 14.8 0.00 0.00 0.00 32 1010.2
20260507084503 73 336 2.6 10.4 0.00 0.00 0.00 35 1010.4
20260507083503 72 174 0.0 13.0 0.00 0.00 0.00 37 1010.5
20260507082523 72 207 0.9 12.2 0.00 0.00 0.00 38 1010.7
20260507081503 72 130 0.9 7.0 0.00 0.00 0.00 38 1010.6
20260507080503 72 138 7.8 7.8 0.00 0.00 0.00 40 1010.7
20260507075503 71 86 8.7 13.9 0.00 0.00 0.00 40 1010.8
20260507074502 71 87 7.0 15.6 0.00 0.00 0.00 41 1011.0
20260507073502 70 74 7.0 13.0 0.00 0.00 0.00 42 1011.3
20260507072502 70 82 2.6 3.5 0.00 0.00 0.00 44 1011.3
20260507071502 69 104 0.0 8.7 0.00 0.00 0.00 44 1011.4
20260507070503 67 79 0.0 6.1 0.00 0.00 0.00 54 1011.6
20260507065501 67 240 0.0 2.6 0.00 0.00 0.00 56 1011.5
20260507064501 67 232 0.0 2.6 0.00 0.00 0.00 56 1011.5
20260507063501 68 157 0.0 2.6 0.00 0.00 0.00 47 1011.6
20260507062501 67 142 0.0 3.5 0.00 0.00 0.00 47 1011.8
20260507061502 67 143 4.3 7.8 0.00 0.00 0.00 46 1011.7
20260507060501 67 150 0.9 4.3 0.00 0.00 0.00 44 1011.7
20260507055501 65 77 0.0 2.6 0.00 0.00 0.00 50 1011.8
20260507054500 65 134 0.0 0.0 0.00 0.00 0.00 51 1011.8
20260507053500 65 134 0.0 0.0 0.00 0.00 0.00 48 1012.0
20260507052500 65 123 0.0 0.0 0.00 0.00 0.00 47 1011.8
20260507051500 65 123 0.0 0.0 0.00 0.00 0.00 46 1011.7
20260507050500 64 186 0.0 0.0 0.00 0.00 0.00 45 1011.7
20260507045500 63 186 0.0 0.0 0.00 0.00 0.00 46 1011.6
20260507044459 63 169 0.0 0.0 0.00 0.00 0.00 48 1011.7
20260507043459 63 169 0.0 0.0 0.00 0.00 0.00 48 1011.6
20260507042459 63 163 0.0 0.0 0.00 0.00 0.00 49 1011.5
20260507041459 63 163 0.0 0.0 0.00 0.00 0.00 46 1011.6
20260507040459 63 163 0.0 1.7 0.00 0.00 0.00 48 1011.6
20260507035459 64 192 0.0 0.0 0.00 0.00 0.00 47 1011.8
20260507034459 64 180 0.0 2.6 0.00 0.00 0.00 45 1011.8
20260507033459 63 153 0.0 0.0 0.00 0.00 0.00 50 1011.8
20260507032500 64 153 0.0 0.0 0.00 0.00 0.00 49 1011.5
20260507031458 64 153 0.0 0.0 0.00 0.00 0.00 48 1011.6
20260507030458 64 153 0.0 0.0 0.00 0.00 0.00 48 1011.8
20260507025458 65 153 0.0 1.7 0.00 0.00 0.00 46 1011.7
20260507024458 65 152 0.0 5.2 0.00 0.00 0.00 45 1011.6
20260507023458 66 115 0.0 1.7 0.00 0.00 0.00 44 1011.8
20260507022457 66 143 1.7 1.7 0.00 0.00 0.00 44 1011.7
20260507021457 66 175 0.0 0.9 0.00 0.00 0.00 43 1011.7
20260507020457 66 205 0.0 0.0 0.00 0.00 0.00 44 1011.7
20260507015457 66 209 0.0 0.0 0.00 0.00 0.00 45 1011.7
20260507014457 67 209 0.0 1.7 0.00 0.00 0.00 42 1011.7
20260507013457 67 146 0.0 0.0 0.00 0.00 0.00 42 1011.6
20260507012456 67 109 0.0 2.6 0.00 0.00 0.00 42 1011.4
20260507011456 67 147 0.0 0.0 0.00 0.00 0.00 42 1011.4
20260507010456 67 236 1.7 2.6 0.00 0.00 0.00 42 1011.7
20260507005456 67 150 0.0 0.0 0.00 0.00 0.00 43 1011.6
20260507004456 67 133 0.0 2.6 0.00 0.00 0.00 43 1011.5
20260507003456 67 147 0.0 1.7 0.00 0.00 0.00 45 1011.6
20260507002455 67 175 0.0 5.2 0.00 0.00 0.00 44 1011.6
20260507001455 67 209 2.6 4.3 0.00 0.00 0.00 44 1011.6
20260507000455 67 204 0.9 2.6 0.00 0.00 0.00 45 1011.8
20260506235455 67 194 0.9 3.5 0.00 0.00 0.00 44 1011.8